Regional Weather Roundup
Issued by NWS

Home | Current Version | Previous Version | Text Only | Print | Product List | Glossary On
Versions: 1 2 3 4 5 6 7 8 9 10 11 12 13 14 15 16 17 18 19 20 21 22 23 24 25 26 27 28 29 30 31 32 33 34 35 36 37 38 39 40 41 42 43 44 45 46 47 48 49 50
000
ASUS42 KFFC 292003
RWRGA
WEATHER ROUNDUP FOR GEORGIA
NATIONAL WEATHER SERVICE PEACHTREE CITY GA
400 PM EDT SUN MAR 29 2015

NOTE: "FAIR" INDICATES FEW OR NO CLOUDS BELOW 12,000 FEET WITH NO
SIGNIFICANT WEATHER AND/OR OBSTRUCTIONS TO VISIBILITY.

* = USE WITH CAUTION. THE STATIONS MARKED WITH AN ASTERISK MAY NOT
REPORT WEATHER SUCH AS PRECIPITATION, FOG, OR THUNDER AND ARE NOT
QUALITY CONTROLLED BY NWS.

THE REMARK "TC" DENOTES TEMPERATURE READING IN DEGREES CELSIUS.

GAZ001>058-292100-
NORTH GEORGIA

CITY           SKY/WX    TMP DP  RH WIND       PRES   REMARKS
ATLANTA        MOSUNNY   58  17  20 SE7       30.29F
ATHENS         SUNNY     60  11  14 VRB5      30.30F
CHAMBLEE       SUNNY     57  16  20 VRB3      30.29F
PEACHTREE CITY SUNNY     59  17  19 CALM      30.30F
ROME           SUNNY     61  21  21 S13G20    30.26F
WEST ATLANTA   SUNNY     61  18  18 S9        30.29F
GAINESVILLE    SUNNY     55  14  19 SW8       30.30F
CARTERSVILLE   SUNNY     59  19  21 CALM      30.29F


CITY           SKY/WX    TMP DP  RH WIND       PRES   REMARKS
DALTON*        MOSUNNY   59  21  23 S8        30.28F
LAWRENCEVILLE* SUNNY     57  28  33 VRB6      30.29F
KENNESAW*      SUNNY     57  18  21 S5        30.31F
$$

GAZ059>098-102>109-292100-
CENTRAL GEORGIA

CITY           SKY/WX    TMP DP  RH WIND       PRES   REMARKS
AUGUSTA-BUSH   SUNNY     57  10  15 E6        30.34F
AUGUSTA-DANIEL SUNNY     56   9  15 E8        30.34F
COLUMBUS       SUNNY     62  22  21 CALM      30.30F
MACON          SUNNY     60  20  21 SE6       30.32F
ROBINS AFB     SUNNY     62  16  16 VRB1      30.32F


CITY           SKY/WX    TMP DP  RH WIND       PRES   REMARKS
LAGRANGE*      SUNNY     65  31  27 CALM      30.29F
SYLVANIA*      SUNNY     58  22  24 N3        30.35F
MILLEDGEVILLE* SUNNY     61  27  27 CALM      30.32F
$$

GAZ099>101-110>166-292100-
SOUTH GEORGIA

CITY           SKY/WX    TMP DP  RH WIND       PRES   REMARKS
SAVANNAH       SUNNY     60  17  18 CALM      30.35F
VALDOSTA       SUNNY     64  24  21 VRB3      30.32F
ALMA           SUNNY     60  25  26 S6        30.33F
ST SIMONS      SUNNY     55  34  45 E13       30.37F
FT STEWART     SUNNY     60  22  22 NE6       30.31F
ALBANY         SUNNY     63  22  20 VRB3      30.34F
HUNTER AFB     SUNNY     57  26  30 VRB7      30.33F
MOODY AFB      SUNNY     64  23  21 E6        30.31F
BRUNSWICK      SUNNY     59  30  33 E12G17    30.37F


CITY           SKY/WX    TMP DP  RH WIND       PRES   REMARKS
BAINBRIDGE*    SUNNY     68  34  28 NW5       30.32F
MOULTRIE*      SUNNY     63  27  25 CALM      30.32F
VIDALIA*       SUNNY     61  27  27 E9        30.33F
WAYCROSS*      SUNNY     64  26  23 CALM      30.33F
DOUGLAS*       SUNNY     63  19  19 E3        30.34F
$$


USA.gov is the U.S. government's official web portal to all federal, state and local government web resources and services.